[[{"header":{"parameterUnit":"m.s-1","parameterCategory":1,"la1":30.2991,"la2":30.254,"lo1":-89.0895,"lo2":-89.0444,"dy":0.0017,"dx":0.0017,"nx":28,"ny":28,"refTime":"2024-08-21T21:00:00:Z","depth":0,"parameterNumber":2,"parameterNumberName":"U-component_of_WINDS"},"data":[0,0,0,0,0,0,0,0,0,0,0,0,0,0,0,0,0,0,0,0,0,0,0,0,0,0,0,0,0,0,0,0,0,0,0,0,0,0,0,0,0,0,0,0,0,0,0,0,0,0,0,0,0,0,0,0,0,0,-2.8616,-2.8615,0,-2.8574,-2.8573,-2.8573,-2.8466,-2.8463,-2.8461,-2.8459,-2.8415,-2.8416,-2.8417,0,0,0,0,0,0,0,0,0,0,0,0,0,-2.8609,-2.8609,-2.8616,-2.8615,-2.8615,-2.8574,-2.8573,-2.8572,-2.8466,-2.8463,-2.8461,-2.8458,-2.8415,-2.8416,-2.8417,0,0,0,0,0,0,0,0,0,0,0,0,0,-2.8594,-2.861,-2.8616,-2.8557,-2.8551,-2.8574,-2.8573,-2.8572,-2.8467,-2.8463,-2.846,-2.8457,-2.8415,-2.8416,-2.8418,-2.8494,0,0,-2.8422,-2.8422,0,0,0,0,0,0,0,0,-2.8595,-2.8594,-2.8566,-2.8561,-2.8555,-2.8521,-2.8554,-2.8546,-2.8468,-2.8499,-2.8459,-2.8455,-2.8453,-2.8451,-2.8451,-2.8492,-2.849,-2.8422,-2.8423,-2.8423,-2.8424,0,0,0,0,0,0,0,-2.8596,-2.8595,-2.8599,-2.8566,-2.8559,-2.8534,-2.8528,-2.8552,-2.8496,-2.8496,-2.8488,-2.8484,-2.845,-2.845,-2.8449,-2.8489,-2.8422,-2.8423,-2.8424,-2.8425,-2.8598,-2.8601,0,0,0,0,0,0,-2.8605,-2.8597,-2.86,-2.8598,-2.8567,-2.8537,-2.853,-2.8536,-2.8495,-2.8486,-2.8487,-2.848,-2.8449,-2.8448,-2.8447,-2.8537,-2.8423,-2.8425,-2.8426,-2.8594,-2.8599,-2.8603,0,0,0,0,0,0,-2.8605,-2.8606,-2.8602,-2.8595,-2.8593,-2.854,-2.8547,-2.8536,-2.8536,-2.8489,-2.8478,-2.8498,-2.8446,-2.8445,-2.8485,-2.8534,-2.8425,-2.8427,-2.859,-2.8596,-2.8601,-2.8716,0,0,0,0,0,0,-2.8606,-2.8607,-2.8634,-2.8597,-2.8594,-2.8639,-2.855,-2.8538,-2.8539,-2.8529,-2.8495,-2.8487,-2.8444,-2.8483,-2.8486,-2.8534,-2.8428,-2.8585,-2.8592,-2.8599,-2.8708,-2.8725,-2.874,0,0,0,0,0,-2.8606,-2.8666,-2.8636,-2.8637,-2.8626,-2.8642,-2.864,-2.8589,-2.8543,-2.8571,-2.8542,-2.8488,-2.8529,-2.8488,-2.849,-2.854,-2.8582,-2.859,-2.8598,-2.87,-2.8722,-2.874,0,0,0,0,0,0,-2.8708,-2.866,-2.8625,-2.8676,-2.8664,-2.8624,-2.8656,-2.8612,-2.8612,-2.8603,-2.854,-2.8534,-2.8583,-2.8565,-2.852,-2.8615,-2.8547,-2.8556,-2.8624,-2.8643,-2.8659,-2.8662,-2.8429,0,0,0,0,0,-2.8737,-2.8754,-2.8711,-2.876,-2.8756,-2.8708,-2.8713,-2.8676,-2.8661,-2.8655,-2.8627,-2.8616,-2.8627,-2.8634,-2.8641,-2.8706,-2.8699,-2.8742,-2.8758,-2.8772,-2.878,-2.8818,-2.8837,-2.8631,-2.863,-2.863,0,0,-2.8796,-2.8772,-2.8785,-2.878,-2.8766,-2.8787,-2.8704,-2.8727,-2.8742,-2.8658,-2.8694,-2.8675,-2.8658,-2.8712,-2.8734,-2.8699,-2.8837,-2.8782,-2.8794,-2.8794,-2.8829,-2.8848,-2.8866,-2.8636,-2.8635,-2.8634,0,0,-2.8913,-2.8896,-2.8937,-2.8927,-2.8909,-2.8878,-2.8889,-2.8857,-2.8841,-2.8877,-2.8816,-2.8835,-2.8853,-2.8845,-2.8843,-2.8968,-2.8919,-2.8972,-2.9055,-2.9093,-2.911,-2.9124,-2.917,-2.9188,-2.8981,-2.8981,-2.8981,0,-2.8988,-2.9015,-2.8963,-2.8993,-2.8994,-2.8922,-2.8965,-2.8958,-2.8943,-2.8946,-2.8907,-2.8934,-2.8916,-2.897,-2.9002,-2.9002,-2.9014,-2.8973,-2.9111,-2.9125,-2.9138,-2.9181,-2.9199,-2.8988,-2.8987,-2.8986,-2.8986,0,-2.911,-2.9131,-2.9166,-2.9156,-2.9162,-2.9198,-2.9154,-2.9166,-2.9131,-2.9106,-2.9147,-2.9125,-2.9129,-2.914,-2.9104,-2.919,-2.9169,-2.9122,-2.9052,-2.9165,-2.9205,-2.9221,-2.8997,-2.8995,-2.8993,-2.8991,0,0,-2.9283,-2.9251,-2.9265,-2.9262,-2.9241,-2.9256,-2.9292,-2.9297,-2.9311,-2.9305,-2.9335,-2.9357,-2.9315,-2.9314,-2.9278,-2.9312,-2.9416,-2.9261,-2.9259,-2.9291,-2.9514,-2.9549,-2.9569,-2.9386,-2.9388,-2.9391,-2.9516,0,-2.9395,-2.9452,-2.9411,-2.9476,-2.9497,-2.9434,-2.9466,-2.9458,-2.9437,-2.9453,-2.943,-2.9447,-2.939,-2.939,-2.942,-2.9397,-2.946,-2.9387,-2.9414,-2.9415,-2.9419,-2.959,-2.9625,-2.9743,-2.9531,-2.9534,-2.9536,0,-2.953,-2.9535,-2.9603,-2.9584,-2.9591,-2.962,-2.9625,-2.9641,-2.9633,-2.9616,-2.9619,-2.9577,-2.9613,-2.9548,-2.9599,-2.9551,-2.9561,-2.9552,-2.9556,-2.9554,-2.9481,-2.9594,-2.978,-2.9798,-2.9559,-2.9558,-2.9556,0,-2.9652,-2.9675,-2.972,-2.972,-2.9698,-2.9721,-2.9713,-2.9702,-2.971,-2.9716,-2.9721,-2.9731,-2.9736,-2.9746,-2.9709,-2.9664,-2.9767,-2.9697,-2.9756,-2.9757,-2.9777,-2.9776,-2.9968,-2.9785,-2.9785,-2.9785,-2.9784,0,-2.978,-2.9824,-2.9776,-2.9803,-2.9853,-2.9808,-2.9859,-2.9845,-2.9837,-2.9863,-2.981,-2.9835,-2.9786,-2.9807,-2.9779,-2.9829,-2.9831,-2.982,-2.9812,-2.9824,-2.9826,-2.9828,-2.9818,-2.9789,-2.9788,-2.9787,-2.9787,0,-2.9922,-2.9891,-2.9936,-2.9915,-2.9911,-2.9949,-2.9932,-2.9958,-2.9937,-2.9971,-2.9976,-2.9943,-2.9967,-2.9932,-2.9951,-2.9933,-3.0001,-2.9981,-3.0004,-2.9998,-3.0059,-3.0054,-3.0257,-3.0283,-3.0085,-3.0087,-3.0088,0,-3.0004,-3.0038,-3.0023,-3.0037,-3.0033,-3.0056,-3.0066,-3.0025,-3.0038,-3.0037,-3.0064,-3.0084,-3.0097,-3.0139,-3.0117,-3.0133,-3.0113,-3.0184,-3.0114,-3.0128,-3.0115,-3.0114,-3.0118,-3.0197,-3.0199,-3.0201,-3.0203,0,-3.0155,-3.014,-3.0156,-3.017,-3.0184,-3.0192,-3.0196,-3.0212,-3.017,-3.0188,-3.0212,-3.0223,-3.0246,-3.0267,-3.028,-3.0273,-3.0233,-3.0226,-3.024,-3.0252,-3.0265,-3.026,-3.0042,-3.022,-3.0218,-3.0217,-3.0216,-3.0215,-3.027,-3.0299,-3.0295,-3.0317,-3.0317,-3.0324,-3.035,-3.0335,-3.0355,-3.037,-3.0346,-3.0379,-3.0377,-3.039,-3.0389,-3.0416,-3.0385,-3.0405,-3.0411,-3.0416,-3.0426,-3.0263,-3.0418,-3.0417,-3.0417,-3.0416,-3.0416,0,-3.0419,-3.0415,-3.0436,-3.0446,-3.0465,-3.0428,-3.0433,-3.0452,-3.0481,-3.0483,-3.05,-3.0532,-3.0554,-3.0538,-3.0558,-3.0583,-3.0565,-3.0589,-3.0586,-3.0587,-3.0452,-3.0437,-3.0604,-3.0604,-3.0604,-3.0604,-3.0604,-3.0604,-3.0498,-3.0547,-3.0533,-3.0584,-3.058,-3.0612,-3.0619,-3.0627,-3.0629,-3.0668,-3.0687,-3.0677,-3.0674,-3.0694,-3.0715,-3.071,-3.072,-3.0752,-3.0741,-3.0614,-3.0595,-3.0578,-3.0564,-3.0755,-3.0755,-3.0873,-3.0874,-3.0875]},{"header":{"parameterUnit":"m.s-1","parameterCategory":1,"la1":30.2991,"la2":30.254,"lo1":-89.0895,"lo2":-89.0444,"dy":0.0017,"dx":0.0017,"nx":28,"ny":28,"refTime":"2024-08-21T21:00:00:Z","depth":0,"parameterNumber":3,"parameterNumberName":"V-component_of_WINDS"},"data":[0,0,0,0,0,0,0,0,0,0,0,0,0,0,0,0,0,0,0,0,0,0,0,0,0,0,0,0,0,0,0,0,0,0,0,0,0,0,0,0,0,0,0,0,0,0,0,0,0,0,0,0,0,0,0,0,0,0,1.4732,1.4732,0,1.4771,1.4772,1.4772,1.4832,1.4833,1.4834,1.4835,1.4872,1.4872,1.4872,0,0,0,0,0,0,0,0,0,0,0,0,0,1.4703,1.4703,1.4732,1.4732,1.4733,1.4771,1.4772,1.4772,1.4831,1.4833,1.4834,1.4835,1.4872,1.4872,1.4872,0,0,0,0,0,0,0,0,0,0,0,0,0,1.4726,1.4703,1.4732,1.4767,1.477,1.4771,1.4772,1.4772,1.4831,1.4833,1.4834,1.4836,1.4872,1.4872,1.4872,1.4841,0,0,1.4872,1.4872,0,0,0,0,0,0,0,0,1.4725,1.4727,1.4761,1.4764,1.4768,1.4798,1.4775,1.4795,1.4831,1.4808,1.4835,1.4837,1.4846,1.4848,1.4852,1.4842,1.4844,1.4872,1.4872,1.4872,1.4872,0,0,0,0,0,0,0,1.4723,1.4726,1.4747,1.4762,1.4766,1.4779,1.4784,1.4779,1.4818,1.481,1.4815,1.4819,1.4848,1.4852,1.4853,1.4844,1.4872,1.4872,1.4872,1.4872,1.4809,1.4807,0,0,0,0,0,0,1.4717,1.4724,1.4746,1.4748,1.475,1.4778,1.4784,1.4787,1.4818,1.4824,1.4817,1.4821,1.4851,1.4853,1.4855,1.482,1.4872,1.4872,1.4872,1.481,1.4808,1.4807,0,0,0,0,0,0,1.4716,1.4718,1.4744,1.4737,1.4742,1.4777,1.478,1.4787,1.4791,1.4823,1.483,1.4814,1.4853,1.4855,1.4844,1.4822,1.4872,1.4872,1.4812,1.481,1.4807,1.4748,0,0,0,0,0,0,1.4715,1.4717,1.4707,1.4737,1.4742,1.4733,1.4779,1.4787,1.4791,1.4797,1.4822,1.4828,1.4854,1.4843,1.4844,1.4823,1.4872,1.4815,1.4811,1.4808,1.4752,1.4744,1.4737,0,0,0,0,0,1.4713,1.4688,1.4706,1.4709,1.473,1.4732,1.4735,1.4766,1.4789,1.4778,1.4798,1.4827,1.4824,1.4842,1.4842,1.4821,1.4816,1.4812,1.4809,1.4756,1.4746,1.4737,0,0,0,0,0,0,1.4655,1.4693,1.4713,1.4697,1.4711,1.4742,1.473,1.4755,1.4762,1.4767,1.4804,1.4809,1.4793,1.4806,1.4825,1.4791,1.4824,1.482,1.4784,1.4774,1.4767,1.4764,1.4872,0,0,0,0,0,1.464,1.464,1.4673,1.4655,1.4661,1.4694,1.4696,1.4719,1.4734,1.474,1.476,1.4773,1.4775,1.4775,1.4779,1.4754,1.476,1.4739,1.4732,1.4725,1.4722,1.4709,1.47,1.4794,1.4794,1.4794,0,0,1.461,1.463,1.4628,1.4644,1.4658,1.4655,1.4699,1.4695,1.4693,1.4739,1.473,1.4745,1.4761,1.4743,1.4736,1.4753,1.4697,1.472,1.4715,1.4715,1.4704,1.4695,1.4687,1.4791,1.4792,1.4792,0,0,1.4553,1.4569,1.4556,1.4568,1.4588,1.4609,1.4606,1.4633,1.4645,1.4636,1.467,1.4668,1.467,1.468,1.4686,1.463,1.4656,1.463,1.459,1.4577,1.4569,1.4563,1.4543,1.4535,1.4626,1.4626,1.4626,0,1.4513,1.4512,1.4546,1.454,1.4545,1.4587,1.4573,1.4583,1.4602,1.4604,1.4623,1.4626,1.464,1.4625,1.4611,1.4614,1.461,1.4628,1.4568,1.4562,1.4556,1.4537,1.453,1.4623,1.4623,1.4623,1.4624,0,1.4461,1.4459,1.4446,1.4464,1.4468,1.4458,1.4489,1.4488,1.4509,1.4528,1.4517,1.4536,1.4543,1.4541,1.4562,1.4527,1.4537,1.4561,1.4595,1.4543,1.4526,1.4519,1.4618,1.4619,1.462,1.4621,0,0,1.4371,1.4406,1.4401,1.4409,1.4433,1.4431,1.4422,1.443,1.4428,1.4439,1.4431,1.4431,1.4453,1.4459,1.4481,1.447,1.4424,1.4495,1.4496,1.4481,1.4386,1.4368,1.4359,1.4441,1.4439,1.4438,1.4384,0,1.4319,1.4307,1.4336,1.4316,1.4314,1.4352,1.4344,1.4356,1.4373,1.4373,1.439,1.439,1.4419,1.4423,1.4413,1.4431,1.4405,1.4436,1.4433,1.4433,1.4429,1.435,1.4332,1.428,1.4378,1.4377,1.4376,0,1.4258,1.4267,1.4246,1.4269,1.427,1.4262,1.427,1.427,1.4284,1.4297,1.4302,1.4328,1.4319,1.435,1.4337,1.4357,1.4358,1.4366,1.4365,1.4367,1.4402,1.435,1.4264,1.4257,1.4366,1.4367,1.4367,0,1.4195,1.42,1.4189,1.4194,1.4221,1.4214,1.4225,1.4241,1.4243,1.4249,1.4251,1.4256,1.4259,1.4262,1.4287,1.4308,1.4271,1.4305,1.428,1.428,1.4272,1.4272,1.4185,1.4271,1.4271,1.4271,1.4271,0,1.4135,1.4121,1.416,1.4153,1.4138,1.417,1.4153,1.4168,1.4181,1.4176,1.4209,1.4203,1.4237,1.4235,1.4254,1.424,1.4241,1.425,1.4256,1.4248,1.4247,1.4249,1.4254,1.4269,1.4269,1.427,1.427,0,1.4062,1.4088,1.4078,1.4103,1.4109,1.4097,1.4118,1.4112,1.4129,1.4123,1.4123,1.415,1.4149,1.4175,1.4178,1.4191,1.4168,1.418,1.4164,1.4168,1.4142,1.4144,1.4054,1.4044,1.4135,1.4134,1.4134,0,1.4023,1.4013,1.4037,1.4036,1.4045,1.4044,1.4046,1.4076,1.4077,1.4091,1.4082,1.4084,1.4087,1.4083,1.4102,1.4105,1.4117,1.4085,1.4118,1.4109,1.4116,1.4117,1.4116,1.4079,1.4078,1.4077,1.4076,0,1.395,1.3962,1.3965,1.3971,1.3973,1.3979,1.3987,1.3984,1.4017,1.4016,1.4015,1.4017,1.4021,1.4021,1.4027,1.4037,1.4061,1.4065,1.406,1.4052,1.4043,1.4047,1.4146,1.4067,1.4068,1.4069,1.4069,1.407,1.3893,1.3885,1.3901,1.3902,1.3911,1.3917,1.3912,1.3929,1.3929,1.3935,1.3952,1.3948,1.396,1.3971,1.3977,1.3974,1.3989,1.3981,1.398,1.3977,1.3972,1.4043,1.3975,1.3975,1.3976,1.3976,1.3976,0,1.3821,1.3833,1.3833,1.3844,1.3844,1.3867,1.3876,1.3875,1.3871,1.3881,1.3883,1.3881,1.3881,1.39,1.3902,1.3895,1.3907,1.3895,1.3896,1.3898,1.3959,1.3963,1.3886,1.3886,1.3886,1.3886,1.3886,1.3886,1.3785,1.3773,1.3787,1.3779,1.379,1.3787,1.3791,1.3796,1.3804,1.3801,1.3801,1.3813,1.3826,1.3829,1.383,1.3835,1.3835,1.3819,1.3828,1.3885,1.3894,1.3902,1.3907,1.3819,1.3819,1.3768,1.3767,1.3767]}]]